BEIDOU-2 G7             
1 41586U 16037A   19261.16074182 -.00000357  00000-0  00000+0 0  9994
2 41586   1.0080  49.2580 0005505   8.8715 107.0928  1.00271495 12073
CZ-3B R/B               
1 41587U 16037B   19258.27378457  .00003336  00000-0  41537-3 0  9998
2 41587  19.5478 308.3400 6957395  91.0482 342.2084  2.71787695 30443